TimePST,TemperatureF,Dew PointF,Humidity,Sea Level PressureIn,VisibilityMPH,Wind Direction,Wind SpeedMPH,Gust SpeedMPH,PrecipitationIn,Events,Conditions,WindDirDegrees,DateUTC
12:53 AM,37.9,36.0,93,30.30,7.0,NE,3.5,-,N/A,,Overcast,50,2013-12-30 08:53:00
1:53 AM,37.9,36.0,93,30.29,6.0,Calm,Calm,-,N/A,,Overcast,0,2013-12-30 09:53:00
2:30 AM,37.9,36.0,93,30.28,2.0,West,3.5,-,N/A,,Overcast,270,2013-12-30 10:30:00
2:53 AM,37.9,36.0,93,30.28,2.0,Calm,Calm,-,N/A,,Overcast,0,2013-12-30 10:53:00
3:53 AM,37.9,36.0,93,30.27,2.0,Calm,Calm,-,N/A,,Overcast,0,2013-12-30 11:53:00
3:57 AM,37.9,36.0,93,30.27,7.0,Calm,Calm,-,N/A,,Overcast,0,2013-12-30 11:57:00
4:53 AM,37.9,36.0,93,30.25,7.0,Calm,Calm,-,N/A,,Overcast,0,2013-12-30 12:53:00
4:59 AM,37.9,36.0,93,30.24,3.0,ENE,4.6,-,N/A,,Overcast,70,2013-12-30 12:59:00
5:08 AM,37.9,36.0,93,30.24,0.8,Calm,Calm,-,N/A,,Overcast,0,2013-12-30 13:08:00
5:53 AM,37.9,36.0,93,30.25,0.8,Calm,Calm,-,0.00,,Overcast,0,2013-12-30 13:53:00
6:41 AM,37.0,36.0,96,30.22,3.0,South,3.5,-,N/A,,Overcast,170,2013-12-30 14:41:00
6:49 AM,37.4,35.6,93,30.22,3.0,Calm,Calm,-,N/A,,Overcast,0,2013-12-30 14:49:00
6:53 AM,37.9,36.0,93,30.21,3.0,Calm,Calm,-,N/A,,Overcast,0,2013-12-30 14:53:00
7:05 AM,37.9,36.0,93,30.22,3.0,WSW,3.5,-,N/A,,Overcast,250,2013-12-30 15:05:00
7:20 AM,37.9,36.0,93,30.21,6.0,WNW,3.5,-,N/A,,Mostly Cloudy,290,2013-12-30 15:20:00
7:53 AM,37.9,36.0,93,30.22,6.0,West,5.8,-,N/A,,Overcast,280,2013-12-30 15:53:00
8:53 AM,39.0,37.0,93,30.22,6.0,ENE,3.5,-,N/A,,Overcast,60,2013-12-30 16:53:00
9:53 AM,39.9,37.0,89,30.23,8.0,SE,5.8,-,N/A,,Overcast,130,2013-12-30 17:53:00
10:53 AM,39.9,37.0,89,30.24,9.0,East,4.6,-,N/A,,Overcast,80,2013-12-30 18:53:00
11:08 AM,41.0,37.0,86,30.25,10.0,NE,3.5,-,N/A,,Overcast,50,2013-12-30 19:08:00
11:51 AM,41.0,35.6,81,30.24,10.0,ENE,3.5,-,N/A,,Overcast,70,2013-12-30 19:51:00
11:53 AM,41.0,36.0,82,30.24,10.0,ENE,4.6,-,N/A,,Overcast,70,2013-12-30 19:53:00
12:53 PM,42.1,37.0,82,30.24,7.0,South,5.8,-,N/A,,Overcast,170,2013-12-30 20:53:00
1:24 PM,42.1,37.0,82,30.24,7.0,SE,6.9,-,N/A,,Overcast,140,2013-12-30 21:24:00
1:43 PM,42.1,37.0,82,30.24,7.0,South,5.8,-,N/A,,Overcast,170,2013-12-30 21:43:00
1:53 PM,41.0,37.0,86,30.25,7.0,SSW,4.6,-,0.00,Rain,Light Rain,200,2013-12-30 21:53:00
2:53 PM,42.1,37.0,82,30.25,6.0,SE,4.6,-,0.00,Rain,Light Rain,140,2013-12-30 22:53:00
3:53 PM,42.1,37.9,85,30.23,6.0,SSE,10.4,-,0.00,,Mostly Cloudy,150,2013-12-30 23:53:00
4:53 PM,41.0,37.9,89,30.24,9.0,Calm,Calm,-,N/A,,Overcast,0,2013-12-31 00:53:00
5:53 PM,39.9,37.0,89,30.24,7.0,West,3.5,-,N/A,,Overcast,260,2013-12-31 01:53:00
6:53 PM,39.9,37.0,89,30.25,8.0,Calm,Calm,-,N/A,,Mostly Cloudy,0,2013-12-31 02:53:00
7:53 PM,36.0,35.1,97,30.25,6.0,SSE,6.9,-,N/A,,Mostly Cloudy,150,2013-12-31 03:53:00
8:13 PM,36.0,35.1,97,30.24,6.0,ESE,5.8,-,N/A,,Mostly Cloudy,110,2013-12-31 04:13:00
8:53 PM,36.0,35.1,97,30.24,5.0,SE,8.1,-,N/A,,Scattered Clouds,130,2013-12-31 04:53:00
9:53 PM,37.9,36.0,93,30.25,6.0,Calm,Calm,-,N/A,,Scattered Clouds,0,2013-12-31 05:53:00
10:53 PM,37.9,37.0,97,30.27,5.0,Calm,Calm,-,N/A,,Mostly Cloudy,0,2013-12-31 06:53:00
11:53 PM,37.0,36.0,96,30.27,6.0,Calm,Calm,-,N/A,,Overcast,0,2013-12-31 07:53:00